[[{"header":{"parameterUnit":"m.s-1","parameterCategory":1,"la1":30.2991,"la2":30.254,"lo1":-89.0895,"lo2":-89.0444,"dy":0.0017,"dx":0.0017,"nx":28,"ny":28,"refTime":"2025-08-05T03:00:00:Z","depth":0,"parameterNumber":2,"parameterNumberName":"U-component_of_WINDS"},"data":[0,0,0,0,0,0,0,0,0,0,0,0,0,0,0,0,0,0,0,0,0,0,0,0,0,0,0,0,0,0,0,0,0,0,0,0,0,0,0,0,0,0,0,0,0,0,0,0,0,0,0,0,0,0,0,0,0,0,-1.033,-1.033,0,-1.0344,-1.0344,-1.0344,-1.034,-1.034,-1.0339,-1.0339,-1.0353,-1.0354,-1.0355,0,0,0,0,0,0,0,0,0,0,0,0,0,-1.0299,-1.03,-1.033,-1.033,-1.033,-1.0344,-1.0344,-1.0344,-1.034,-1.034,-1.0339,-1.0339,-1.0353,-1.0354,-1.0355,0,0,0,0,0,0,0,0,0,0,0,0,0,-1.0313,-1.03,-1.033,-1.033,-1.033,-1.0344,-1.0344,-1.0344,-1.034,-1.034,-1.0339,-1.0339,-1.0353,-1.0354,-1.0355,-1.0369,0,0,-1.0358,-1.0358,0,0,0,0,0,0,0,0,-1.0312,-1.0314,-1.0329,-1.033,-1.033,-1.034,-1.0338,-1.0353,-1.034,-1.0336,-1.0339,-1.0339,-1.0349,-1.035,-1.0354,-1.037,-1.0371,-1.0358,-1.0358,-1.0359,-1.0359,0,0,0,0,0,0,0,-1.0311,-1.0313,-1.0335,-1.033,-1.033,-1.0329,-1.033,-1.0341,-1.0345,-1.0336,-1.0336,-1.0338,-1.0349,-1.0353,-1.0354,-1.0371,-1.0358,-1.0359,-1.0359,-1.036,-1.0401,-1.0401,0,0,0,0,0,0,-1.031,-1.0313,-1.0335,-1.0336,-1.032,-1.033,-1.0331,-1.0337,-1.0345,-1.0345,-1.0338,-1.0338,-1.0352,-1.0353,-1.0355,-1.0373,-1.0359,-1.036,-1.036,-1.04,-1.0401,-1.0401,0,0,0,0,0,0,-1.031,-1.0312,-1.0334,-1.0324,-1.0327,-1.0331,-1.0337,-1.0337,-1.0341,-1.0346,-1.0347,-1.0342,-1.0351,-1.0353,-1.0366,-1.0373,-1.036,-1.0361,-1.0399,-1.04,-1.0401,-1.0409,0,0,0,0,0,0,-1.0309,-1.0312,-1.0318,-1.0324,-1.0327,-1.0345,-1.0337,-1.0338,-1.0343,-1.0342,-1.0349,-1.035,-1.0351,-1.0365,-1.0367,-1.0375,-1.0362,-1.0399,-1.04,-1.0401,-1.0409,-1.041,-1.0412,0,0,0,0,0,-1.0308,-1.0319,-1.0318,-1.0321,-1.0334,-1.0346,-1.0347,-1.0348,-1.0344,-1.0349,-1.0353,-1.035,-1.0372,-1.0366,-1.0368,-1.0377,-1.0398,-1.04,-1.0401,-1.0408,-1.041,-1.0412,0,0,0,0,0,0,-1.0313,-1.032,-1.0319,-1.0333,-1.0339,-1.0345,-1.0352,-1.0351,-1.0358,-1.0357,-1.0358,-1.0359,-1.0373,-1.0376,-1.0369,-1.0392,-1.0385,-1.0386,-1.0389,-1.0391,-1.0393,-1.0392,-1.0363,0,0,0,0,0,-1.0316,-1.0325,-1.033,-1.0342,-1.0345,-1.0348,-1.0353,-1.0353,-1.0359,-1.0362,-1.0366,-1.0372,-1.038,-1.0386,-1.0394,-1.0409,-1.0411,-1.0416,-1.0417,-1.0419,-1.0421,-1.0429,-1.0432,-1.0405,-1.0405,-1.0405,0,0,-1.0322,-1.0327,-1.0332,-1.0343,-1.0348,-1.0357,-1.035,-1.036,-1.0367,-1.0363,-1.0376,-1.0379,-1.0386,-1.04,-1.0406,-1.0403,-1.0428,-1.042,-1.0421,-1.0422,-1.0431,-1.0433,-1.0436,-1.0406,-1.0406,-1.0405,0,0,-1.0338,-1.0342,-1.0353,-1.0358,-1.0365,-1.0367,-1.0369,-1.0376,-1.0378,-1.039,-1.0388,-1.0396,-1.0411,-1.0416,-1.042,-1.0438,-1.0437,-1.0441,-1.045,-1.0459,-1.0461,-1.0463,-1.047,-1.0473,-1.0442,-1.0442,-1.0442,0,-1.0344,-1.0358,-1.0358,-1.0368,-1.0374,-1.0371,-1.0382,-1.0387,-1.0396,-1.04,-1.0396,-1.0414,-1.0419,-1.0434,-1.0439,-1.0442,-1.0446,-1.044,-1.0461,-1.0463,-1.0464,-1.0471,-1.0474,-1.0443,-1.0443,-1.0443,-1.0443,0,-1.0366,-1.0375,-1.0383,-1.0393,-1.0398,-1.0409,-1.0411,-1.0417,-1.0417,-1.0419,-1.0432,-1.0438,-1.0447,-1.045,-1.045,-1.0466,-1.0464,-1.046,-1.0454,-1.0468,-1.0474,-1.0477,-1.0444,-1.0444,-1.0443,-1.0443,0,0,-1.0386,-1.0396,-1.0399,-1.0403,-1.0411,-1.0418,-1.0428,-1.0438,-1.0443,-1.045,-1.0459,-1.0471,-1.0468,-1.0473,-1.0473,-1.0481,-1.0496,-1.0476,-1.0477,-1.048,-1.0515,-1.0518,-1.0521,-1.0494,-1.0495,-1.0495,-1.0515,0,-1.0403,-1.0421,-1.0422,-1.0439,-1.0448,-1.0446,-1.0455,-1.0461,-1.0464,-1.0472,-1.0475,-1.0484,-1.0478,-1.0482,-1.0489,-1.0492,-1.0503,-1.0491,-1.0503,-1.0504,-1.0503,-1.0524,-1.0528,-1.0546,-1.0517,-1.0517,-1.0518,0,-1.0425,-1.0433,-1.0451,-1.0458,-1.0462,-1.047,-1.0479,-1.0486,-1.0493,-1.0494,-1.05,-1.05,-1.0511,-1.0503,-1.0519,-1.0511,-1.0516,-1.0518,-1.0519,-1.0521,-1.0512,-1.0527,-1.0551,-1.0554,-1.0522,-1.0521,-1.0521,0,-1.0439,-1.0453,-1.0466,-1.047,-1.0478,-1.0484,-1.0488,-1.0494,-1.05,-1.0508,-1.0511,-1.052,-1.0525,-1.0532,-1.0534,-1.0528,-1.055,-1.0542,-1.0552,-1.0552,-1.0557,-1.0557,-1.0583,-1.0559,-1.0559,-1.0559,-1.0559,0,-1.0458,-1.047,-1.0473,-1.0481,-1.0493,-1.0494,-1.0507,-1.051,-1.0516,-1.0524,-1.0523,-1.0531,-1.0533,-1.0541,-1.0543,-1.0556,-1.0558,-1.056,-1.056,-1.056,-1.056,-1.0564,-1.0563,-1.056,-1.0559,-1.0559,-1.0559,0,-1.0476,-1.0479,-1.0493,-1.0499,-1.0501,-1.051,-1.0516,-1.0524,-1.0526,-1.0537,-1.054,-1.0544,-1.0554,-1.0556,-1.0568,-1.057,-1.0585,-1.0584,-1.0583,-1.0583,-1.0593,-1.0593,-1.0623,-1.0628,-1.06,-1.0601,-1.0601,0,-1.0489,-1.0498,-1.0505,-1.0511,-1.0515,-1.0524,-1.053,-1.0531,-1.0537,-1.0546,-1.0553,-1.0563,-1.0571,-1.0587,-1.0592,-1.0601,-1.06,-1.0611,-1.0602,-1.0602,-1.0602,-1.0601,-1.0603,-1.0612,-1.0613,-1.0613,-1.0613,0,-1.0511,-1.0512,-1.0521,-1.053,-1.0537,-1.0544,-1.0551,-1.0555,-1.0558,-1.0565,-1.0575,-1.0581,-1.0594,-1.0604,-1.0614,-1.0618,-1.0616,-1.0616,-1.0619,-1.0619,-1.0619,-1.062,-1.0589,-1.0615,-1.0615,-1.0615,-1.0615,-1.0615,-1.0528,-1.0535,-1.0542,-1.0552,-1.0557,-1.0564,-1.0571,-1.0575,-1.0583,-1.0594,-1.0594,-1.0606,-1.0612,-1.0625,-1.063,-1.0639,-1.0636,-1.064,-1.0641,-1.0642,-1.0644,-1.0617,-1.064,-1.064,-1.064,-1.064,-1.064,0,-1.0551,-1.0555,-1.0564,-1.0573,-1.0581,-1.0579,-1.0586,-1.0593,-1.0603,-1.0609,-1.0618,-1.063,-1.064,-1.0645,-1.0655,-1.0661,-1.0661,-1.0664,-1.0664,-1.0665,-1.0645,-1.0642,-1.0664,-1.0664,-1.0664,-1.0664,-1.0664,-1.0664,-1.0564,-1.0577,-1.0579,-1.0595,-1.0599,-1.061,-1.0615,-1.0621,-1.0626,-1.064,-1.0649,-1.0652,-1.0658,-1.0668,-1.0677,-1.0678,-1.0683,-1.0686,-1.0687,-1.0669,-1.0666,-1.0664,-1.0661,-1.0687,-1.0687,-1.0706,-1.0706,-1.0707]},{"header":{"parameterUnit":"m.s-1","parameterCategory":1,"la1":30.2991,"la2":30.254,"lo1":-89.0895,"lo2":-89.0444,"dy":0.0017,"dx":0.0017,"nx":28,"ny":28,"refTime":"2025-08-05T03:00:00:Z","depth":0,"parameterNumber":3,"parameterNumberName":"V-component_of_WINDS"},"data":[0,0,0,0,0,0,0,0,0,0,0,0,0,0,0,0,0,0,0,0,0,0,0,0,0,0,0,0,0,0,0,0,0,0,0,0,0,0,0,0,0,0,0,0,0,0,0,0,0,0,0,0,0,0,0,0,0,0,0.8363,0.8362,0,0.8317,0.8316,0.8316,0.825,0.8249,0.8247,0.8246,0.82,0.82,0.82,0,0,0,0,0,0,0,0,0,0,0,0,0,0.8394,0.8393,0.8363,0.8362,0.8362,0.8317,0.8316,0.8316,0.825,0.8248,0.8247,0.8246,0.82,0.82,0.82,0,0,0,0,0,0,0,0,0,0,0,0,0,0.8367,0.8393,0.8363,0.8324,0.832,0.8317,0.8316,0.8315,0.825,0.8248,0.8247,0.8245,0.82,0.82,0.82,0.8232,0,0,0.8199,0.8199,0,0,0,0,0,0,0,0,0.8369,0.8366,0.833,0.8326,0.8322,0.8287,0.831,0.8288,0.8251,0.8277,0.8246,0.8244,0.8231,0.8228,0.8223,0.823,0.8228,0.8199,0.8199,0.8199,0.8199,0,0,0,0,0,0,0,0.8371,0.8368,0.8345,0.8329,0.8324,0.8308,0.8302,0.8305,0.8264,0.8274,0.8269,0.8265,0.8228,0.8223,0.8221,0.8228,0.8199,0.8199,0.8199,0.8198,0.8258,0.8259,0,0,0,0,0,0,0.8378,0.837,0.8346,0.8343,0.8341,0.8309,0.8302,0.83,0.8264,0.8256,0.8266,0.8262,0.8225,0.8222,0.8219,0.8254,0.8199,0.8198,0.8198,0.8256,0.8258,0.826,0,0,0,0,0,0,0.8379,0.8377,0.8348,0.8355,0.835,0.831,0.8308,0.83,0.8295,0.8257,0.825,0.8269,0.8223,0.822,0.8229,0.8252,0.8198,0.8198,0.8254,0.8257,0.8259,0.8325,0,0,0,0,0,0,0.838,0.8378,0.839,0.8356,0.835,0.8359,0.8309,0.83,0.8295,0.8289,0.8258,0.8251,0.8221,0.823,0.8229,0.8251,0.8198,0.8252,0.8255,0.8258,0.8321,0.833,0.8338,0,0,0,0,0,0.8382,0.8411,0.8391,0.8388,0.8365,0.8361,0.8357,0.8322,0.8297,0.8309,0.8284,0.8252,0.8249,0.8232,0.823,0.8252,0.825,0.8254,0.8258,0.8317,0.8328,0.8337,0,0,0,0,0,0,0.845,0.8406,0.8383,0.8402,0.8386,0.8349,0.8363,0.8335,0.8325,0.832,0.8276,0.827,0.8285,0.8269,0.825,0.828,0.8245,0.8249,0.8291,0.8301,0.8309,0.8313,0.8198,0,0,0,0,0,0.8467,0.8467,0.8429,0.8449,0.8442,0.8404,0.8401,0.8375,0.8356,0.8349,0.8325,0.8308,0.8303,0.8301,0.8294,0.8318,0.831,0.8332,0.834,0.8347,0.8351,0.8361,0.8371,0.8273,0.8273,0.8273,0,0,0.8502,0.8478,0.8481,0.8462,0.8446,0.8447,0.8399,0.8402,0.8403,0.835,0.8357,0.8339,0.8317,0.8333,0.8339,0.832,0.8376,0.8352,0.8358,0.8358,0.8366,0.8376,0.8384,0.8275,0.8275,0.8274,0,0,0.8568,0.855,0.8564,0.8549,0.8525,0.8499,0.8503,0.847,0.8456,0.8462,0.8422,0.8422,0.8414,0.84,0.8392,0.8449,0.8419,0.8448,0.8492,0.8502,0.851,0.8517,0.8537,0.8544,0.8452,0.8452,0.8452,0,0.8615,0.8615,0.8576,0.8581,0.8574,0.8524,0.8539,0.8526,0.8501,0.8497,0.8476,0.8464,0.8446,0.8458,0.8472,0.8467,0.8469,0.8452,0.8512,0.8518,0.8524,0.8542,0.855,0.8456,0.8456,0.8455,0.8455,0,0.8674,0.8675,0.8689,0.8666,0.866,0.867,0.8631,0.863,0.8604,0.858,0.8587,0.8563,0.855,0.855,0.8526,0.8559,0.8547,0.852,0.8483,0.8537,0.8554,0.8561,0.8461,0.846,0.8459,0.8458,0,0,0.8783,0.8736,0.8742,0.873,0.8699,0.8699,0.8706,0.8692,0.8692,0.8676,0.868,0.8674,0.8648,0.8638,0.8611,0.862,0.8666,0.8591,0.859,0.8606,0.87,0.8721,0.873,0.8646,0.8647,0.8648,0.8702,0,0.8842,0.8852,0.8816,0.8835,0.8834,0.8786,0.8792,0.8774,0.8751,0.8747,0.8722,0.8719,0.8684,0.8678,0.8685,0.866,0.8685,0.8655,0.865,0.865,0.8657,0.8739,0.8762,0.8814,0.8708,0.8709,0.871,0,0.8913,0.89,0.8919,0.8885,0.8884,0.889,0.8874,0.8871,0.8848,0.8831,0.882,0.8788,0.8791,0.8756,0.876,0.8741,0.8736,0.8723,0.8724,0.8722,0.8684,0.874,0.883,0.8838,0.872,0.8719,0.8719,0,0.899,0.8977,0.8987,0.8978,0.8939,0.8944,0.8928,0.8904,0.8898,0.8884,0.8879,0.8866,0.8859,0.8849,0.8813,0.8791,0.8822,0.8783,0.8807,0.8808,0.8817,0.8817,0.8908,0.8814,0.8813,0.8813,0.8813,0,0.9061,0.9074,0.9021,0.9026,0.9039,0.8997,0.9011,0.899,0.8969,0.8969,0.8927,0.8928,0.8881,0.8877,0.8849,0.8857,0.8854,0.884,0.8832,0.8844,0.8846,0.8841,0.8836,0.8815,0.8815,0.8815,0.8814,0,0.915,0.9114,0.9121,0.9083,0.9074,0.9085,0.9052,0.9056,0.903,0.9031,0.9029,0.8988,0.8981,0.8944,0.8929,0.891,0.8927,0.8912,0.8935,0.893,0.8956,0.8954,0.9047,0.9057,0.8957,0.8958,0.8959,0,0.9198,0.9207,0.9169,0.9166,0.9152,0.9148,0.9141,0.9099,0.9093,0.9067,0.9073,0.9062,0.9052,0.9042,0.9011,0.8998,0.8983,0.9016,0.8981,0.8991,0.8983,0.8983,0.8983,0.9024,0.9025,0.9026,0.9027,0,0.9286,0.9267,0.9259,0.9244,0.9237,0.9223,0.9207,0.9207,0.916,0.9156,0.9147,0.9139,0.9122,0.9111,0.9093,0.9076,0.9044,0.9038,0.9043,0.9055,0.9068,0.9061,0.8956,0.9037,0.9036,0.9035,0.9035,0.9034,0.9355,0.9361,0.9335,0.9326,0.9309,0.9295,0.9296,0.9269,0.9262,0.9244,0.922,0.9215,0.919,0.9162,0.9147,0.9142,0.9123,0.9131,0.9133,0.9135,0.9141,0.9068,0.9138,0.9138,0.9138,0.9137,0.9137,0,0.9441,0.9422,0.9414,0.9392,0.9385,0.9355,0.9335,0.9331,0.9327,0.9306,0.9296,0.9286,0.9275,0.9242,0.9228,0.923,0.9214,0.9227,0.9227,0.9223,0.9158,0.9155,0.924,0.924,0.924,0.924,0.924,0.924,0.9485,0.9492,0.947,0.9468,0.9448,0.9442,0.9433,0.9419,0.9402,0.9393,0.9383,0.9362,0.9336,0.9319,0.9307,0.9298,0.9294,0.9312,0.9298,0.9238,0.9228,0.9219,0.9216,0.9312,0.9312,0.9363,0.9364,0.9364]}]]